TIANWANG 1A (TW-1A)
1 40928U 15051D   19303.77331589  .00003958  00000-0  96475-4 0  9994
2 40928  97.1345 332.0783 0009553 313.6274 135.2991 15.41438346229820
LAPAN A2
1 40931U 15052B   19302.40879780  .00000597  00000-0 -58682-5 0  9994
2 40931   5.9847 190.0824 0011407 235.6408 124.5275 14.76615343220917
LQSAT
1 40958U 15057A   19303.24176321  .00000041  00000-0  13955-4 0  9998
2 40958  97.8852   8.7351 0018491 168.5484 191.6149 14.73093976218461
CHUBUSAT 2
1 41338U 16012B   19303.49750888  .00000384  00000-0  23208-4 0  9998
2 41338  31.0044  14.3902 0013880 348.3816  11.6498 15.00200939203020
CHUBUSAT 3
1 41339U 16012C   19303.58454362  .00000412  00000-0  25244-4 0  9991
2 41339  31.0114  11.7579 0013520 356.0139   4.0397 15.00372937203038
OUFTI-1
1 41458U 16025C   19303.80640865  .00002206  00000-0  11565-3 0  9990
2 41458  98.1011  37.4745 0164287 266.0141  92.2291 15.06127547192759
E-STAR-2
1 41459U 16025D   19303.85556569  .00002068  00000-0  10946-3 0  9991
2 41459  98.1004  37.1080 0165486 267.2732  90.9513 15.05749532192735
AAUSAT 4
1 41460U 16025E   19303.79224775  .00003137  00000-0  15960-3 0  9996
2 41460  98.0969  38.6344 0155572 258.9566  99.4126 15.07753024192874
NUSAT 1
1 41557U 16033B   19303.82770644  .00001606  00000-0  62369-4 0  9992
2 41557  97.4143  30.5390 0013804 177.1759 182.9561 15.27486663190566
BEESAT 4
1 41619U 16040W   19303.72230905  .00001584  00000-0  69431-4 0  9991
2 41619  97.3525   3.3583 0009533 272.1377  87.8768 15.23415454174263
PRATHAM
1 41783U 16059A   19302.76109319  .00000082  00000-0  25197-4 0  9993
2 41783  98.0520 359.2961 0032748 327.4300  32.4882 14.63016916165003
ALSAT 1N
1 41789U 16059G   19303.72943611  .00000075  00000-0  23256-4 0  9993
2 41789  98.0552   2.5315 0027350 313.2739  46.6178 14.64271307165268
NAYIF 1
1 42017U 17008BX  19303.43039131  .00001823  00000-0  74032-4 0  9994
2 42017  97.3896   9.0678 0007708  65.7548 294.4495 15.25843137150311
MAX VALIER SAT
1 42778U 17036P   19303.24555988  .00001218  00000-0  55877-4 0  9995
2 42778  97.3390 357.8687 0013948 113.0899 247.1809 15.22214782130550
